Tracking 35275 objects as of 8-Sep-2026
HD Live streaming from Space Station
objects crossing your sky now

OBJECT B

Track OBJECT B now!
10-day predictions


NORAD ID: 63983
Int'l Code: 2025-100B
Launch date: May 14, 2025
Source: People's Republic of China (PRC)
Launch site: Jiuquan Satellite Launch Center, China (JSC)
Your satellite tracking list
Your tracking list is empty




NASA's NSSDC Master Catalog

Two Line Element Set (TLE):
1 63983U 25100B   26251.56792541  .00035403  00000-0  79700-3 0  9993
2 63983  97.3574 329.2402 0007474   1.3437 358.7830 15.43185041 73756
Source of the keplerian elements: AFSPC